Time,TemperatureF,DewpointF,PressureIn,WindDirection,WindDirectionDegrees,WindSpeedMPH,WindSpeedGustMPH,Humidity,HourlyPrecipIn,Conditions,Clouds,dailyrainin,SoftwareType,DateUTC
2013-02-15 00:00:00,43.4,42.0,30.23,NW,314,0.0,2.0,95,0.00,,,0.00,weatherlink.com 1.10,2013-02-15 08:00:00,
2013-02-15 00:15:00,42.9,42.0,30.23,SSW,197,0.0,0.0,96,0.00,,,0.00,weatherlink.com 1.10,2013-02-15 08:15:00,
2013-02-15 00:30:00,42.8,42.0,30.23,SSW,195,0.0,0.0,96,0.00,,,0.00,weatherlink.com 1.10,2013-02-15 08:30:00,
2013-02-15 00:45:00,42.6,41.0,30.24,SSE,162,0.0,0.0,95,0.00,,,0.00,weatherlink.com 1.10,2013-02-15 08:45:00,
2013-02-15 01:00:00,41.9,41.0,30.24,SSE,162,0.0,0.0,96,0.00,,,0.00,weatherlink.com 1.10,2013-02-15 09:00:00,
2013-02-15 01:16:00,41.6,41.0,30.24,SSE,158,0.0,0.0,97,0.00,,,0.00,weatherlink.com 1.10,2013-02-15 09:16:00,
2013-02-15 01:31:00,41.0,40.0,30.23,ESE,113,0.0,0.0,97,0.00,,,0.00,weatherlink.com 1.10,2013-02-15 09:31:00,
2013-02-15 01:46:00,41.3,41.0,30.23,ESE,108,0.0,0.0,97,0.00,,,0.00,weatherlink.com 1.10,2013-02-15 09:46:00,
2013-02-15 02:01:00,41.3,41.0,30.24,ESE,107,0.0,0.0,97,0.00,,,0.00,weatherlink.com 1.10,2013-02-15 10:01:00,
2013-02-15 02:16:00,41.6,41.0,30.24,SE,134,0.0,0.0,98,0.00,,,0.00,weatherlink.com 1.10,2013-02-15 10:16:00,
2013-02-15 02:31:00,42.0,41.0,30.24,SE,127,0.0,0.0,97,0.00,,,0.00,weatherlink.com 1.10,2013-02-15 10:31:00,
2013-02-15 02:46:00,40.6,40.0,30.24,ESE,115,0.0,0.0,96,0.00,,,0.00,weatherlink.com 1.10,2013-02-15 10:46:00,
2013-02-15 03:01:00,39.9,39.0,30.23,ENE,69,0.0,0.0,97,0.00,,,0.00,weatherlink.com 1.10,2013-02-15 11:01:00,
2013-02-15 03:17:00,39.5,39.0,30.23,NE,53,0.0,0.0,97,0.00,,,0.00,weatherlink.com 1.10,2013-02-15 11:17:00,
2013-02-15 03:31:00,39.3,39.0,30.23,NE,53,0.0,0.0,97,0.00,,,0.00,weatherlink.com 1.10,2013-02-15 11:31:00,
2013-02-15 03:46:00,39.6,39.0,30.23,NE,53,0.0,0.0,98,0.00,,,0.00,weatherlink.com 1.10,2013-02-15 11:46:00,
2013-02-15 04:01:00,39.1,38.0,30.23,ENE,57,0.0,1.0,97,0.00,,,0.00,weatherlink.com 1.10,2013-02-15 12:01:00,
2013-02-15 04:16:00,38.9,38.0,30.23,NE,50,0.0,1.0,97,0.00,,,0.00,weatherlink.com 1.10,2013-02-15 12:16:00,
2013-02-15 04:31:00,38.9,38.0,30.23,NE,56,0.0,0.0,98,0.00,,,0.00,weatherlink.com 1.10,2013-02-15 12:31:00,
2013-02-15 04:46:00,37.8,37.0,30.23,NE,47,0.0,0.0,97,0.00,,,0.00,weatherlink.com 1.10,2013-02-15 12:46:00,
2013-02-15 05:01:00,38.3,38.0,30.24,NE,47,0.0,0.0,98,0.00,,,0.00,weatherlink.com 1.10,2013-02-15 13:01:00,
2013-02-15 05:16:00,41.7,42.0,30.24,East,96,0.0,0.0,99,0.00,,,0.00,weatherlink.com 1.10,2013-02-15 13:16:00,
2013-02-15 05:31:00,43.0,43.0,30.24,East,89,2.0,4.0,98,0.00,,,0.00,weatherlink.com 1.10,2013-02-15 13:31:00,
2013-02-15 05:46:00,42.9,42.0,30.25,East,92,0.0,3.0,96,0.00,,,0.00,weatherlink.com 1.10,2013-02-15 13:46:00,
2013-02-15 06:01:00,43.5,43.0,30.25,SE,136,0.0,3.0,96,0.00,,,0.00,weatherlink.com 1.10,2013-02-15 14:01:00,
2013-02-15 06:16:00,43.0,42.0,30.25,East,87,2.0,3.0,95,0.00,,,0.00,weatherlink.com 1.10,2013-02-15 14:16:00,
2013-02-15 06:31:00,42.9,42.0,30.25,ESE,108,0.0,2.0,96,0.00,,,0.00,weatherlink.com 1.10,2013-02-15 14:31:00,
2013-02-15 06:46:00,43.8,42.0,30.25,ESE,108,1.0,3.0,94,0.00,,,0.00,weatherlink.com 1.10,2013-02-15 14:46:00,
2013-02-15 07:01:00,43.2,42.0,30.26,East,91,3.0,3.0,94,0.00,,,0.00,weatherlink.com 1.10,2013-02-15 15:01:00,
2013-02-15 07:16:00,43.2,42.0,30.26,ESE,104,2.0,3.0,94,0.00,,,0.00,weatherlink.com 1.10,2013-02-15 15:16:00,
2013-02-15 07:31:00,43.6,42.0,30.27,East,84,3.0,4.0,93,0.00,,,0.00,weatherlink.com 1.10,2013-02-15 15:31:00,
2013-02-15 07:46:00,44.1,42.0,30.27,East,96,1.0,2.0,93,0.00,,,0.00,weatherlink.com 1.10,2013-02-15 15:46:00,
2013-02-15 08:01:00,44.6,43.0,30.27,East,100,2.0,2.0,92,0.00,,,0.00,weatherlink.com 1.10,2013-02-15 16:01:00,
2013-02-15 08:16:00,44.9,43.0,30.28,ESE,113,2.0,3.0,93,0.00,,,0.00,weatherlink.com 1.10,2013-02-15 16:16:00,
2013-02-15 08:31:00,45.1,43.0,30.28,SE,130,0.0,1.0,93,0.00,,,0.00,weatherlink.com 1.10,2013-02-15 16:31:00,
2013-02-15 08:47:00,46.6,44.0,30.28,ESE,110,0.0,0.0,92,0.00,,,0.00,weatherlink.com 1.10,2013-02-15 16:47:00,
2013-02-15 09:01:00,48.2,45.0,30.28,ESE,122,0.0,1.0,89,0.00,,,0.00,weatherlink.com 1.10,2013-02-15 17:01:00,
2013-02-15 09:17:00,49.9,46.0,30.28,ESE,112,0.0,4.0,87,0.01,,,0.01,weatherlink.com 1.10,2013-02-15 17:17:00,
2013-02-15 09:32:00,52.4,49.0,30.29,SE,129,0.0,5.0,87,0.01,,,0.01,weatherlink.com 1.10,2013-02-15 17:32:00,
2013-02-15 09:47:00,54.7,50.0,30.28,SSE,167,3.0,5.0,84,0.01,,,0.01,weatherlink.com 1.10,2013-02-15 17:47:00,
2013-02-15 10:02:00,56.0,50.0,30.28,ESE,115,0.0,6.0,81,0.01,,,0.01,weatherlink.com 1.10,2013-02-15 18:02:00,
2013-02-15 10:17:00,59.6,47.0,30.28,SE,143,3.0,6.0,64,0.00,,,0.01,weatherlink.com 1.10,2013-02-15 18:17:00,
2013-02-15 10:32:00,61.4,48.0,30.28,SSE,165,4.0,7.0,62,0.00,,,0.01,weatherlink.com 1.10,2013-02-15 18:32:00,
2013-02-15 10:47:00,62.5,49.0,30.28,SE,138,6.0,8.0,61,0.00,,,0.01,weatherlink.com 1.10,2013-02-15 18:47:00,
2013-02-15 11:02:00,64.0,48.0,30.28,ESE,109,4.0,9.0,56,0.00,,,0.01,weatherlink.com 1.10,2013-02-15 19:02:00,
2013-02-15 11:17:00,65.1,47.0,30.28,East,98,0.0,9.0,53,0.00,,,0.01,weatherlink.com 1.10,2013-02-15 19:17:00,
2013-02-15 11:32:00,66.8,44.0,30.28,East,87,0.0,4.0,44,0.00,,,0.01,weatherlink.com 1.10,2013-02-15 19:32:00,
2013-02-15 11:47:00,68.3,45.0,30.27,NE,51,0.0,6.0,43,0.00,,,0.01,weatherlink.com 1.10,2013-02-15 19:47:00,
2013-02-15 12:02:00,69.2,42.0,30.27,East,84,4.0,4.0,38,0.00,,,0.01,weatherlink.com 1.10,2013-02-15 20:02:00,
2013-02-15 12:17:00,70.2,42.0,30.26,East,82,1.0,6.0,36,0.00,,,0.01,weatherlink.com 1.10,2013-02-15 20:17:00,
2013-02-15 12:32:00,70.6,42.0,30.25,East,81,0.0,3.0,35,0.00,,,0.01,weatherlink.com 1.10,2013-02-15 20:32:00,
2013-02-15 12:47:00,71.4,42.0,30.24,East,90,1.0,9.0,35,0.00,,,0.01,weatherlink.com 1.10,2013-02-15 20:47:00,
2013-02-15 13:02:00,71.4,42.0,30.23,ESE,104,1.0,10.0,34,0.00,,,0.01,weatherlink.com 1.10,2013-02-15 21:02:00,
2013-02-15 13:17:00,71.8,41.0,30.23,East,90,0.0,8.0,33,0.00,,,0.01,weatherlink.com 1.10,2013-02-15 21:17:00,
2013-02-15 13:32:00,72.0,43.0,30.22,ENE,63,0.0,5.0,35,0.00,,,0.01,weatherlink.com 1.10,2013-02-15 21:32:00,
2013-02-15 13:47:00,72.7,43.0,30.22,NE,48,0.0,8.0,35,0.00,,,0.01,weatherlink.com 1.10,2013-02-15 21:47:00,
2013-02-15 14:02:00,72.7,42.0,30.22,NE,55,1.0,8.0,33,0.00,,,0.01,weatherlink.com 1.10,2013-02-15 22:02:00,
2013-02-15 14:17:00,73.2,42.0,30.21,SE,134,5.0,8.0,32,0.00,,,0.01,weatherlink.com 1.10,2013-02-15 22:17:00,
2013-02-15 14:32:00,73.8,43.0,30.21,NE,42,1.0,4.0,33,0.00,,,0.01,weatherlink.com 1.10,2013-02-15 22:32:00,
2013-02-15 14:47:00,73.8,44.0,30.21,East,100,0.0,5.0,34,0.00,,,0.01,weatherlink.com 1.10,2013-02-15 22:47:00,
2013-02-15 15:03:00,73.4,43.0,30.22,ENE,57,5.0,8.0,34,0.00,,,0.01,weatherlink.com 1.10,2013-02-15 23:03:00,
2013-02-15 15:18:00,73.0,43.0,30.21,NE,46,2.0,8.0,34,0.00,,,0.01,weatherlink.com 1.10,2013-02-15 23:18:00,
2013-02-15 15:33:00,73.0,42.0,30.21,East,94,0.0,5.0,33,0.00,,,0.01,weatherlink.com 1.10,2013-02-15 23:33:00,
2013-02-15 15:48:00,72.9,42.0,30.21,East,94,1.0,4.0,33,0.00,,,0.01,weatherlink.com 1.10,2013-02-15 23:48:00,
2013-02-15 16:03:00,73.3,44.0,30.21,East,88,0.0,1.0,35,0.00,,,0.01,weatherlink.com 1.10,2013-02-16 00:03:00,
2013-02-15 16:18:00,73.2,44.0,30.21,East,94,0.0,3.0,35,0.00,,,0.01,weatherlink.com 1.10,2013-02-16 00:18:00,
2013-02-15 16:33:00,73.2,45.0,30.21,East,88,0.0,2.0,36,0.00,,,0.01,weatherlink.com 1.10,2013-02-16 00:33:00,
2013-02-15 16:48:00,72.2,45.0,30.21,ESE,104,0.0,4.0,38,0.00,,,0.01,weatherlink.com 1.10,2013-02-16 00:48:00,
2013-02-15 17:03:00,70.0,49.0,30.21,SE,145,0.0,4.0,48,0.00,,,0.01,weatherlink.com 1.10,2013-02-16 01:03:00,
2013-02-15 17:18:00,69.9,47.0,30.21,South,184,0.0,0.0,44,0.00,,,0.01,weatherlink.com 1.10,2013-02-16 01:18:00,
2013-02-15 17:33:00,65.9,49.0,30.21,SE,132,0.0,0.0,54,0.00,,,0.01,weatherlink.com 1.10,2013-02-16 01:33:00,
2013-02-15 17:48:00,61.6,47.0,30.21,ESE,116,0.0,0.0,59,0.00,,,0.01,weatherlink.com 1.10,2013-02-16 01:48:00,
2013-02-15 18:03:00,58.5,45.0,30.21,ENE,63,0.0,0.0,61,0.00,,,0.01,weatherlink.com 1.10,2013-02-16 02:03:00,
2013-02-15 18:18:00,55.3,45.0,30.21,ENE,64,0.0,0.0,69,0.00,,,0.01,weatherlink.com 1.10,2013-02-16 02:18:00,
2013-02-15 18:33:00,53.0,45.0,30.22,NE,54,0.0,0.0,73,0.00,,,0.01,weatherlink.com 1.10,2013-02-16 02:33:00,
2013-02-15 18:48:00,51.7,44.0,30.22,NE,53,0.0,0.0,75,0.00,,,0.01,weatherlink.com 1.10,2013-02-16 02:48:00,
2013-02-15 19:03:00,50.8,44.0,30.22,NE,49,0.0,0.0,77,0.00,,,0.01,weatherlink.com 1.10,2013-02-16 03:03:00,
2013-02-15 19:18:00,49.4,43.0,30.23,NE,53,0.0,0.0,79,0.00,,,0.01,weatherlink.com 1.10,2013-02-16 03:18:00,
2013-02-15 19:33:00,48.3,43.0,30.23,NE,49,0.0,0.0,81,0.00,,,0.01,weatherlink.com 1.10,2013-02-16 03:33:00,
2013-02-15 19:48:00,47.7,43.0,30.23,ENE,78,0.0,0.0,82,0.00,,,0.01,weatherlink.com 1.10,2013-02-16 03:48:00,
2013-02-15 20:03:00,47.6,43.0,30.23,NE,49,0.0,0.0,83,0.00,,,0.01,weatherlink.com 1.10,2013-02-16 04:03:00,
2013-02-15 20:18:00,46.9,42.0,30.23,East,80,0.0,0.0,84,0.00,,,0.01,weatherlink.com 1.10,2013-02-16 04:18:00,
2013-02-15 20:33:00,47.3,43.0,30.24,SE,127,0.0,0.0,86,0.00,,,0.01,weatherlink.com 1.10,2013-02-16 04:33:00,
2013-02-15 20:48:00,46.7,42.0,30.24,East,93,0.0,0.0,84,0.00,,,0.01,weatherlink.com 1.10,2013-02-16 04:48:00,
2013-02-15 21:03:00,46.5,42.0,30.24,ENE,68,0.0,0.0,85,0.00,,,0.01,weatherlink.com 1.10,2013-02-16 05:03:00,
2013-02-15 21:18:00,46.3,42.0,30.25,ESE,117,0.0,0.0,84,0.00,,,0.01,weatherlink.com 1.10,2013-02-16 05:18:00,
2013-02-15 21:33:00,45.0,41.0,30.25,ENE,66,0.0,0.0,87,0.00,,,0.01,weatherlink.com 1.10,2013-02-16 05:33:00,
2013-02-15 21:48:00,44.8,41.0,30.25,ENE,66,0.0,0.0,87,0.00,,,0.01,weatherlink.com 1.10,2013-02-16 05:48:00,
2013-02-15 22:03:00,44.6,41.0,30.25,ESE,102,0.0,0.0,88,0.00,,,0.01,weatherlink.com 1.10,2013-02-16 06:03:00,
2013-02-15 22:18:00,44.1,41.0,30.25,NNW,344,0.0,0.0,90,0.00,,,0.01,weatherlink.com 1.10,2013-02-16 06:18:00,
2013-02-15 22:33:00,43.5,41.0,30.25,NE,34,0.0,0.0,91,0.00,,,0.01,weatherlink.com 1.10,2013-02-16 06:33:00,
2013-02-15 22:48:00,43.3,41.0,30.25,ENE,66,0.0,1.0,90,0.00,,,0.01,weatherlink.com 1.10,2013-02-16 06:48:00,
2013-02-15 23:03:00,42.7,40.0,30.25,NE,53,0.0,0.0,91,0.00,,,0.01,weatherlink.com 1.10,2013-02-16 07:03:00,
2013-02-15 23:18:00,42.8,41.0,30.25,East,90,0.0,2.0,93,0.00,,,0.01,weatherlink.com 1.10,2013-02-16 07:18:00,
2013-02-15 23:34:00,42.9,41.0,30.25,East,79,0.0,0.0,91,0.00,,,0.01,weatherlink.com 1.10,2013-02-16 07:34:00,
2013-02-15 23:48:00,42.9,41.0,30.25,SE,145,0.0,0.0,93,0.00,,,0.01,weatherlink.com 1.10,2013-02-16 07:48:00,